TimeCDT,TemperatureF,Dew PointF,Humidity,Sea Level PressureIn,VisibilityMPH,Wind Direction,Wind SpeedMPH,Gust SpeedMPH,PrecipitationIn,Events,Conditions,WindDirDegrees,DateUTC
12:53 AM,51.1,35.1,54,30.07,10.0,WNW,3.5,-,N/A,,Clear,300,2013-10-07 05:53:00
1:53 AM,48.0,35.1,61,30.08,10.0,NNW,8.1,-,N/A,,Clear,330,2013-10-07 06:53:00
2:53 AM,48.0,34.0,58,30.09,10.0,NW,6.9,-,N/A,,Clear,310,2013-10-07 07:53:00
3:53 AM,48.0,34.0,58,30.09,10.0,NNW,8.1,-,N/A,,Clear,330,2013-10-07 08:53:00
4:53 AM,46.9,35.1,63,30.11,10.0,NNW,8.1,-,N/A,,Clear,340,2013-10-07 09:53:00
5:53 AM,41.0,34.0,76,30.13,10.0,West,3.5,-,N/A,,Clear,260,2013-10-07 10:53:00
6:53 AM,43.0,35.1,74,30.14,10.0,WNW,3.5,-,N/A,,Partly Cloudy,300,2013-10-07 11:53:00
7:53 AM,42.1,36.0,79,30.16,10.0,Calm,Calm,-,N/A,,Clear,0,2013-10-07 12:53:00
8:53 AM,52.0,39.9,63,30.19,10.0,Calm,Calm,-,N/A,,Partly Cloudy,0,2013-10-07 13:53:00
9:53 AM,57.0,39.0,51,30.20,10.0,NW,4.6,-,N/A,,Clear,310,2013-10-07 14:53:00
10:53 AM,62.1,39.0,43,30.19,10.0,Calm,Calm,-,N/A,,Partly Cloudy,0,2013-10-07 15:53:00
11:53 AM,64.0,37.9,38,30.18,10.0,Calm,Calm,-,N/A,,Partly Cloudy,0,2013-10-07 16:53:00
12:53 PM,68.0,36.0,31,30.16,10.0,South,5.8,-,N/A,,Clear,190,2013-10-07 17:53:00
1:53 PM,71.1,34.0,26,30.13,10.0,Variable,4.6,-,N/A,,Partly Cloudy,0,2013-10-07 18:53:00
2:53 PM,72.0,35.1,26,30.10,10.0,SSW,5.8,-,N/A,,Clear,200,2013-10-07 19:53:00
3:53 PM,73.9,35.1,24,30.09,10.0,South,8.1,-,N/A,,Clear,170,2013-10-07 20:53:00
4:53 PM,73.9,36.0,25,30.07,10.0,South,9.2,-,N/A,,Clear,190,2013-10-07 21:53:00
5:53 PM,73.0,37.0,27,30.06,10.0,South,8.1,-,N/A,,Clear,180,2013-10-07 22:53:00
6:53 PM,64.0,39.9,41,30.07,10.0,South,8.1,-,N/A,,Clear,170,2013-10-07 23:53:00
7:53 PM,60.1,39.0,46,30.09,10.0,South,9.2,-,N/A,,Clear,170,2013-10-08 00:53:00
8:53 PM,60.1,39.9,47,30.09,10.0,South,8.1,-,N/A,,Clear,170,2013-10-08 01:53:00
9:53 PM,55.9,42.1,60,30.09,10.0,South,9.2,-,N/A,,Clear,170,2013-10-08 02:53:00
10:53 PM,54.0,42.1,64,30.09,10.0,South,8.1,-,N/A,,Clear,180,2013-10-08 03:53:00
11:53 PM,55.0,42.1,62,30.07,10.0,SSE,10.4,-,N/A,,Clear,160,2013-10-08 04:53:00